GW2092 Weather Reports


time (UTC)temp
C
wind
direction
speed
KPH
gust
KPH
rain 1hr
cm
rain 24hr
cm
rain mn
cm
humidity
%
barometer
mb
20260503223041 27 313 0.0 6.4 0.00 0.00 0.00 35 1012.8
20260503221538 28 152 0.0 8.0 0.00 0.00 0.00 39 1012.8
20260503220039 28 126 0.0 4.8 0.00 0.00 0.00 37 1012.9
20260503214546 28 330 0.0 11.3 0.00 0.00 0.00 36 1013.2
20260503213043 28 0 0.0 6.4 0.00 0.00 0.00 36 1013.4
20260503211544 27 179 1.6 9.7 0.00 0.00 0.00 37 1013.6
20260503210041 28 229 0.0 11.3 0.00 0.00 0.00 38 1013.8
20260503204548 28 117 0.0 9.7 0.00 0.00 0.00 36 1014.1
20260503203053 27 237 1.6 12.9 0.00 0.00 0.00 41 1014.4
20260503201538 27 162 1.6 17.7 0.00 0.00 0.00 39 1014.6
20260503200046 27 0 1.6 11.3 0.00 0.00 0.00 41 1014.8
20260503194546 27 221 1.6 9.7 0.00 0.00 0.00 42 1014.9
20260503193045 27 221 1.6 16.1 0.00 0.00 0.00 42 1015.0
20260503191539 27 0 1.6 12.9 0.00 0.00 0.00 44 1015.3
20260503190037 26 128 0.0 12.9 0.00 0.00 0.00 44 1015.4
20260503184539 26 160 1.6 6.4 0.00 0.00 0.00 43 1015.5
20260503183037 26 169 1.6 9.7 0.00 0.00 0.00 43 1015.6
20260503181542 26 0 0.0 9.7 0.00 0.00 0.00 44 1016.0
20260503180052 26 97 1.6 11.3 0.00 0.00 0.00 43 1016.4
20260503174547 25 145 0.0 6.4 0.00 0.00 0.00 46 1016.6
20260503173052 25 215 1.6 11.3 0.00 0.00 0.00 44 1016.9
20260503171543 25 116 3.2 11.3 0.00 0.00 0.00 44 1017.0
20260503081541 3 0 0.0 0.0 0.00 0.00 0.00 88 1019.2
20260503071553 3 0 0.0 0.0 0.00 0.00 0.00 90 1019.6
20260503060109 3 0 0.0 0.0 0.00 0.00 0.00 89 1020.3
20260503054550 3 0 0.0 0.0 0.00 0.00 0.00 88 1020.4
20260503053044 4 0 0.0 0.0 0.00 0.00 0.00 87 1020.4
20260503051549 4 0 0.0 0.0 0.00 0.00 0.00 85 1020.5
20260503050040 4 0 0.0 0.0 0.00 0.00 0.00 84 1020.5
20260503044545 5 0 0.0 0.0 0.00 0.00 0.00 82 1020.5
20260503043050 5 0 0.0 0.0 0.00 0.00 0.00 82 1020.4
20260503041543 5 0 0.0 0.0 0.00 0.00 0.00 81 1020.3
20260503040054 6 0 0.0 0.0 0.00 0.00 0.00 78 1020.3
20260503034544 6 0 0.0 0.0 0.00 0.00 0.00 75 1020.4
20260503033038 6 0 0.0 0.0 0.00 0.00 0.00 76 1020.4
20260503031537 7 0 0.0 0.0 0.00 0.00 0.00 74 1020.4
20260503030047 7 0 0.0 0.0 0.00 0.00 0.00 72 1020.3
20260503024544 8 0 0.0 0.0 0.00 0.00 0.00 72 1020.2
20260503023052 8 0 0.0 0.0 0.00 0.00 0.00 70 1020.2
20260503021550 8 0 0.0 0.0 0.00 0.00 0.00 68 1020.1
20260503020047 9 0 0.0 0.0 0.00 0.00 0.00 66 1019.9
20260503014544 10 0 0.0 0.0 0.00 0.00 0.00 60 1019.8
20260503013037 11 0 0.0 0.0 0.00 0.00 0.00 59 1019.7
20260503011549 12 0 0.0 0.0 0.00 0.00 0.00 55 1019.7
20260503010044 13 0 0.0 0.0 0.00 0.00 0.00 49 1019.6
20260503004610 13 0 0.0 0.0 0.00 0.00 0.00 47 1019.6
20260503003101 15 0 0.0 0.0 0.00 0.00 0.00 44 1019.6
20260503001601 15 0 0.0 0.0 0.00 0.00 0.00 43 1019.5
20260503000040 16 0 0.0 1.6 0.00 0.00 0.00 40 1019.6
20260502234544 16 0 0.0 3.2 0.00 0.00 0.00 38 1019.7
20260502233044 16 0 0.0 4.8 0.00 0.00 0.00 35 1019.7
20260502231540 17 0 0.0 6.4 0.00 0.00 0.00 38 1019.8
20260502230039 18 0 0.0 8.0 0.00 0.00 0.00 37 1019.7
20260502224543 18 0 0.0 9.7 0.00 0.00 0.00 36 1019.7